Location: Bergnerzell
(49.1816°N, 10.2565°E)
Time: 03:52:30
(UTC+00:00)

USA 267 - Pass Details

Date: 23 May 2024
Orbit: 1100 x 1107 km, 123.0° (Epoch: 21 May)

Event Time Altitude Azimuth Distance (km) Brightness Sun altitude
Rises 01:57:52 0° 68° (ENE) 3,921 7.3 -11.4°
Reaches altitude 10° 02:00:26 10° 63° (ENE) 2,962 6.7 -11.2°
Maximum altitude 02:06:36 47° 352° (N) 1,429 4.2 -10.5°
Drops below altitude 10° 02:12:47 10° 282° (WNW) 2,960 5.2 -9.9°
Sets 02:15:21 0° 276° (W) 3,918 5.8 -9.6°
